[[{"header":{"parameterUnit":"m.s-1","parameterCategory":1,"la1":30.2991,"la2":30.254,"lo1":-89.0895,"lo2":-89.0444,"dy":0.0017,"dx":0.0017,"nx":28,"ny":28,"refTime":"2024-07-12T09:00:00:Z","depth":0,"parameterNumber":2,"parameterNumberName":"U-component_of_WINDS"},"data":[0,0,0,0,0,0,0,0,0,0,0,0,0,0,0,0,0,0,0,0,0,0,0,0,0,0,0,0,0,0,0,0,0,0,0,0,0,0,0,0,0,0,0,0,0,0,0,0,0,0,0,0,0,0,0,0,0,0,2.4559,2.4561,0,2.4693,2.4695,2.4696,2.47,2.4698,2.4697,2.4695,2.4831,2.4836,2.4842,0,0,0,0,0,0,0,0,0,0,0,0,0,2.4305,2.431,2.4559,2.4561,2.4563,2.4693,2.4695,2.4696,2.47,2.4698,2.4696,2.4694,2.483,2.4836,2.4842,0,0,0,0,0,0,0,0,0,0,0,0,0,2.4425,2.4311,2.4559,2.458,2.4583,2.4692,2.4695,2.4697,2.4701,2.4698,2.4696,2.4693,2.4828,2.4835,2.4843,2.494,0,0,2.4867,2.487,0,0,0,0,0,0,0,0,2.4418,2.4434,2.4575,2.4579,2.4583,2.4677,2.4655,2.4778,2.4701,2.4656,2.4695,2.4692,2.4782,2.4793,2.4824,2.4946,2.4952,2.4867,2.4872,2.4875,2.4877,0,0,0,0,0,0,0,2.441,2.4428,2.4612,2.4577,2.4582,2.4582,2.4597,2.4678,2.4731,2.466,2.466,2.4676,2.4784,2.4816,2.4827,2.4954,2.4867,2.4874,2.4879,2.4882,2.5159,2.5161,0,0,0,0,0,0,2.4397,2.4421,2.4608,2.4616,2.4493,2.4589,2.4605,2.4649,2.473,2.474,2.4678,2.4676,2.4804,2.4818,2.4832,2.4948,2.4875,2.4882,2.4887,2.5156,2.5159,2.5162,0,0,0,0,0,0,2.4392,2.4414,2.4603,2.4519,2.4543,2.4596,2.4646,2.4653,2.4686,2.4744,2.4753,2.4702,2.4803,2.4821,2.4912,2.4953,2.4886,2.4893,2.5153,2.5157,2.5161,2.5183,0,0,0,0,0,0,2.4385,2.4412,2.445,2.452,2.4548,2.4681,2.4648,2.4658,2.4699,2.4698,2.4769,2.4779,2.4803,2.4901,2.492,2.4962,2.4899,2.5149,2.5155,2.516,2.5178,2.5187,2.5194,0,0,0,0,0,2.4376,2.4451,2.4452,2.4474,2.4596,2.4684,2.4699,2.4726,2.4703,2.4741,2.4778,2.4776,2.4946,2.491,2.4932,2.4977,2.5147,2.5153,2.5159,2.5175,2.5185,2.5194,0,0,0,0,0,0,2.4385,2.4461,2.4462,2.4563,2.4617,2.4684,2.4733,2.4736,2.4797,2.4793,2.4823,2.4839,2.4929,2.4962,2.4921,2.5073,2.5043,2.5054,2.5048,2.5058,2.5066,2.5055,2.4905,0,0,0,0,0,2.4399,2.4464,2.4527,2.4609,2.4636,2.468,2.4719,2.4734,2.4791,2.4814,2.4858,2.4912,2.4978,2.502,2.5084,2.5184,2.5198,2.5226,2.5233,2.524,2.5248,2.5301,2.5313,2.5182,2.5182,2.5182,0,0,2.4428,2.4477,2.4517,2.4612,2.4656,2.4721,2.4699,2.477,2.4819,2.4825,2.4913,2.4947,2.501,2.5105,2.5149,2.5135,2.5287,2.5247,2.5252,2.5257,2.5308,2.5321,2.5331,2.5187,2.5186,2.5185,0,0,2.4514,2.4559,2.4631,2.4675,2.4741,2.4769,2.4787,2.4853,2.4876,2.4965,2.497,2.5028,2.5141,2.5184,2.5221,2.5322,2.5322,2.5342,2.5383,2.5434,2.5444,2.5453,2.5487,2.5499,2.5351,2.5351,2.5351,0,2.4542,2.4641,2.4668,2.4739,2.478,2.4788,2.4861,2.4902,2.4985,2.5013,2.4997,2.5136,2.518,2.5284,2.5308,2.5339,2.5358,2.5334,2.5441,2.545,2.5459,2.5491,2.5504,2.5353,2.5352,2.5352,2.5352,0,2.4671,2.474,2.4791,2.487,2.4917,2.4988,2.5025,2.5069,2.508,2.5109,2.5198,2.5251,2.5323,2.535,2.5362,2.5455,2.5444,2.5434,2.5404,2.5473,2.5503,2.5516,2.5355,2.5355,2.5354,2.5354,0,0,2.4767,2.4859,2.4877,2.4912,2.4984,2.5038,2.5109,2.518,2.5216,2.5273,2.5332,2.5426,2.5417,2.5459,2.5476,2.5521,2.5594,2.5505,2.5506,2.5517,2.5697,2.5703,2.5717,2.5595,2.5598,2.56,2.5691,0,2.4859,2.4985,2.5011,2.512,2.5183,2.5191,2.5252,2.5303,2.5332,2.5389,2.5421,2.5486,2.547,2.5495,2.554,2.5575,2.563,2.5569,2.5648,2.5651,2.563,2.5734,2.574,2.5824,2.5704,2.5706,2.5707,0,2.4983,2.5042,2.5157,2.5219,2.5247,2.5302,2.5368,2.5423,2.5479,2.5497,2.5543,2.5555,2.5627,2.5595,2.5694,2.5652,2.5686,2.5709,2.5712,2.5719,2.5682,2.5741,2.5852,2.5864,2.5727,2.5725,2.5724,0,2.5038,2.5147,2.5229,2.5259,2.5334,2.5372,2.5405,2.546,2.55,2.5558,2.5584,2.565,2.5685,2.5735,2.5763,2.5738,2.586,2.583,2.5875,2.5874,2.5899,2.5897,2.6015,2.5925,2.5924,2.5924,2.5924,0,2.5138,2.5207,2.5254,2.5305,2.5382,2.5411,2.5486,2.5519,2.5567,2.5623,2.5635,2.5687,2.5722,2.5778,2.5801,2.5878,2.5895,2.591,2.5915,2.5908,2.5906,2.593,2.5924,2.5927,2.5927,2.5926,2.5925,0,2.5212,2.5247,2.5336,2.54,2.5417,2.5471,2.5525,2.5574,2.5603,2.5673,2.5691,2.5736,2.5804,2.5837,2.5921,2.5936,2.6023,2.6025,2.6003,2.6005,2.6047,2.6041,2.6182,2.6201,2.61,2.6101,2.6102,0,2.5272,2.5325,2.5394,2.5432,2.5466,2.5527,2.5568,2.5598,2.564,2.5707,2.5747,2.5815,2.587,2.5977,2.6017,2.6081,2.6083,2.6128,2.6093,2.6083,2.6081,2.6077,2.6081,2.6134,2.6135,2.6136,2.6136,0,2.5373,2.5388,2.5446,2.5511,2.5559,2.5611,2.5663,2.5693,2.5731,2.5777,2.5845,2.5888,2.5973,2.604,2.6106,2.6139,2.6143,2.6147,2.6161,2.6153,2.6137,2.6144,2.6018,2.6144,2.6143,2.6142,2.6142,2.6142,2.5441,2.5488,2.5543,2.5607,2.5649,2.5696,2.5744,2.5778,2.5836,2.5907,2.5921,2.5993,2.6047,2.6136,2.6171,2.6227,2.6217,2.6237,2.6242,2.6246,2.6246,2.613,2.624,2.624,2.6239,2.6239,2.6239,0,2.5541,2.5577,2.5636,2.5706,2.5757,2.5757,2.5813,2.5855,2.5918,2.5968,2.6022,2.6099,2.6163,2.6208,2.6272,2.6309,2.6312,2.6324,2.6321,2.6328,2.6253,2.6234,2.632,2.632,2.632,2.632,2.632,2.632,2.5599,2.5677,2.5698,2.5796,2.5832,2.5902,2.5934,2.5977,2.6016,2.6102,2.6155,2.6184,2.6231,2.6299,2.6357,2.6368,2.6391,2.6403,2.6413,2.6342,2.6334,2.6325,2.6307,2.6408,2.6408,2.6483,2.6484,2.6485]},{"header":{"parameterUnit":"m.s-1","parameterCategory":1,"la1":30.2991,"la2":30.254,"lo1":-89.0895,"lo2":-89.0444,"dy":0.0017,"dx":0.0017,"nx":28,"ny":28,"refTime":"2024-07-12T09:00:00:Z","depth":0,"parameterNumber":3,"parameterNumberName":"V-component_of_WINDS"},"data":[0,0,0,0,0,0,0,0,0,0,0,0,0,0,0,0,0,0,0,0,0,0,0,0,0,0,0,0,0,0,0,0,0,0,0,0,0,0,0,0,0,0,0,0,0,0,0,0,0,0,0,0,0,0,0,0,0,0,4.1601,4.1601,0,4.1653,4.1654,4.1654,4.1592,4.159,4.1587,4.1585,4.1635,4.1638,4.1642,0,0,0,0,0,0,0,0,0,0,0,0,0,4.1441,4.1445,4.1601,4.1601,4.1602,4.1653,4.1654,4.1654,4.1592,4.159,4.1587,4.1584,4.1634,4.1638,4.1642,0,0,0,0,0,0,0,0,0,0,0,0,0,4.1504,4.1446,4.16,4.1577,4.1576,4.1653,4.1654,4.1654,4.1593,4.1589,4.1586,4.1583,4.1632,4.1637,4.1642,4.1744,0,0,4.1658,4.1661,0,0,0,0,0,0,0,0,4.15,4.151,4.158,4.1579,4.1577,4.1612,4.1616,4.1684,4.1594,4.1586,4.1585,4.1581,4.163,4.1635,4.1652,4.1746,4.1748,4.1659,4.1662,4.1664,4.1666,0,0,0,0,0,0,0,4.1496,4.1507,4.1621,4.1581,4.1579,4.1562,4.1567,4.1628,4.1627,4.1587,4.1582,4.159,4.1628,4.1647,4.1653,4.1749,4.1659,4.1663,4.1666,4.1669,4.1925,4.1929,0,0,0,0,0,0,4.1495,4.1504,4.1619,4.1623,4.153,4.1568,4.1574,4.1605,4.1626,4.1626,4.1592,4.1586,4.164,4.1647,4.1655,4.1773,4.1664,4.1669,4.1672,4.1922,4.1926,4.193,0,0,0,0,0,0,4.1492,4.1506,4.1617,4.1562,4.1575,4.1575,4.161,4.1607,4.1626,4.163,4.1629,4.1613,4.1638,4.1647,4.1722,4.1774,4.1671,4.1676,4.1917,4.1923,4.1928,4.2012,0,0,0,0,0,0,4.1488,4.1505,4.1545,4.1564,4.1578,4.1686,4.1613,4.1611,4.1636,4.1629,4.1649,4.1649,4.1636,4.1714,4.1727,4.1779,4.168,4.1913,4.192,4.1927,4.2004,4.2019,4.2032,0,0,0,0,0,4.1482,4.1566,4.1548,4.1562,4.1628,4.1689,4.1697,4.1681,4.1641,4.168,4.1682,4.1648,4.1766,4.1722,4.1736,4.1791,4.1909,4.1918,4.1926,4.1998,4.2016,4.2032,0,0,0,0,0,0,4.1553,4.1568,4.1548,4.164,4.1664,4.1678,4.1727,4.1702,4.1736,4.1728,4.1706,4.1711,4.179,4.1798,4.1749,4.1888,4.1831,4.1842,4.1881,4.1898,4.1912,4.1908,4.1684,0,0,0,0,0,4.1579,4.1629,4.1639,4.1719,4.1732,4.1728,4.1754,4.174,4.1762,4.1772,4.1779,4.1801,4.1843,4.1871,4.191,4.2005,4.2007,4.2049,4.2063,4.2075,4.2084,4.2133,4.2151,4.1958,4.1958,4.1957,0,0,4.1634,4.1649,4.1681,4.1734,4.1751,4.18,4.1737,4.1792,4.1828,4.178,4.185,4.1857,4.188,4.1965,4.2002,4.1973,4.2139,4.2085,4.2094,4.2098,4.2144,4.2162,4.2178,4.1963,4.1962,4.1961,0,0,4.176,4.1777,4.1845,4.1863,4.1889,4.1885,4.1901,4.1919,4.1922,4.1993,4.1957,4.1998,4.2072,4.2089,4.2107,4.2238,4.2208,4.2251,4.2324,4.2372,4.2387,4.2401,4.2446,4.2462,4.2261,4.2261,4.2261,0,4.1824,4.19,4.1883,4.1941,4.1964,4.1923,4.1991,4.2009,4.2046,4.2062,4.2029,4.2119,4.2132,4.2219,4.2251,4.2268,4.2284,4.2248,4.2387,4.24,4.2412,4.2455,4.2472,4.2266,4.2266,4.2265,4.2265,0,4.1977,4.2029,4.2081,4.2119,4.2148,4.2211,4.2201,4.2232,4.2216,4.2215,4.2286,4.23,4.234,4.236,4.2344,4.2444,4.2426,4.2391,4.2332,4.2436,4.2476,4.2492,4.2273,4.2272,4.227,4.2269,0,0,4.2149,4.2176,4.2195,4.2211,4.2236,4.2275,4.2335,4.2375,4.2401,4.2428,4.2476,4.2538,4.2506,4.2526,4.2512,4.2554,4.2654,4.2513,4.2513,4.2538,4.2764,4.279,4.2809,4.2635,4.2638,4.264,4.2762,0,4.2274,4.2379,4.2365,4.2465,4.2512,4.2473,4.2524,4.2544,4.2545,4.2583,4.2582,4.2627,4.2581,4.2593,4.2633,4.2634,4.2699,4.2625,4.2678,4.268,4.2672,4.283,4.2858,4.2973,4.2778,4.278,4.2782,0,4.2434,4.2467,4.2572,4.2588,4.2607,4.2654,4.2689,4.2727,4.2748,4.2745,4.2768,4.2745,4.2802,4.2743,4.2821,4.2771,4.2791,4.2795,4.2799,4.2803,4.2737,4.2837,4.3009,4.3026,4.2807,4.2805,4.2803,0,4.2547,4.2618,4.2689,4.2704,4.2725,4.2759,4.2769,4.2786,4.2811,4.2841,4.2856,4.2892,4.2911,4.2939,4.2925,4.2884,4.3005,4.2945,4.3003,4.3003,4.303,4.3028,4.3206,4.3045,4.3045,4.3044,4.3044,0,4.2688,4.2753,4.274,4.2784,4.2856,4.2838,4.2908,4.2913,4.2929,4.2972,4.294,4.298,4.296,4.2999,4.2989,4.3054,4.3063,4.3061,4.3057,4.3064,4.3064,4.3076,4.3067,4.3049,4.3048,4.3047,4.3046,0,4.2826,4.2821,4.2896,4.2909,4.2914,4.2966,4.2977,4.3017,4.3014,4.3069,4.308,4.3076,4.312,4.3109,4.3157,4.3149,4.3231,4.3218,4.3225,4.3221,4.3279,4.3273,4.347,4.3494,4.3319,4.332,4.3322,0,4.2916,4.2965,4.2984,4.3011,4.3024,4.3068,4.3093,4.3076,4.3103,4.3129,4.3166,4.3207,4.3239,4.331,4.331,4.3345,4.3332,4.3398,4.3337,4.3341,4.3331,4.3328,4.3332,4.3411,4.3413,4.3414,4.3416,0,4.3075,4.307,4.3107,4.3144,4.3175,4.3203,4.3227,4.3251,4.3235,4.3267,4.3312,4.3336,4.3385,4.3425,4.3457,4.3465,4.3438,4.3435,4.345,4.3456,4.3458,4.3456,4.3257,4.343,4.3429,4.3428,4.3427,4.3426,4.3191,4.3233,4.3252,4.3295,4.3312,4.3335,4.3373,4.3375,4.3413,4.3451,4.3439,4.3489,4.3506,4.3547,4.356,4.3598,4.3572,4.3594,4.36,4.3605,4.3612,4.3452,4.3604,4.3603,4.3603,4.3602,4.3602,0,4.3348,4.3358,4.3398,4.3433,4.3466,4.3438,4.3463,4.3492,4.3537,4.3557,4.3589,4.3639,4.3677,4.368,4.3716,4.3746,4.3734,4.3756,4.3753,4.3755,4.3633,4.3616,4.3765,4.3765,4.3765,4.3765,4.3764,4.3764,4.3433,4.3501,4.3498,4.3573,4.3582,4.3632,4.3649,4.3669,4.3685,4.3743,4.3775,4.3777,4.3789,4.3825,4.3858,4.3858,4.3872,4.3899,4.3894,4.378,4.3763,4.3748,4.3732,4.3902,4.3903,4.4012,4.4013,4.4014]}]]